Paauilo, HI

12:31 PM HST on August 24, 2016 (GMT -1000)
Bradshaw Army Air Field

Weather History for PHSF - September, 2013

Change the Weather History Date:

Friday, September 20, 2013

  Actual Average Record
Temperature  
Mean Temperature 60 °F -  
Max Temperature 70 °F 69 °F 75 °F (2004)
Min Temperature 49 °F 49 °F 44 °F (1999)
Degree Days  
Heating Degree Days 6    
Growing Degree Days 10 (Base 50)    
Moisture  
Dew Point 49 °F    
Average Humidity 74    
Maximum Humidity 91    
Minimum Humidity 53    
Precipitation  
Precipitation 0.00 in - - ()
Sea Level Pressure  
Sea Level Pressure 30.33 in    
Wind  
Wind Speed 9 mph (SE)    
Max Wind Speed 15 mph    
Max Gust Speed 22 mph    
Visibility 12 miles    
Events      
Averages and records for this station are not official NWS values.
T = Trace of Precipitation, MM = Missing Value Source: NWS Daily Summary

Daily Weather History Graph

Daily Weather History Graph

Search for Another Location

Airport or City:

Trip Planner

Search our weather history database for the weather conditions in past years. The results will help you decide how hot, cold, wet, or windy it might be!

Date:

Astronomy

Sep. 20, 2013 Rise Set
Actual Time 6:10 AM HST 6:19 PM HST
Civil Twilight 5:48 AM HST 6:41 PM HST
Nautical Twilight 5:23 AM HST 7:07 PM HST
Astronomical Twilight 4:57 AM HST 7:32 PM HST
Moon 7:20 PM HST (9/20) 7:20 AM HST (9/20)
Length of Visible Light 12h 53m
Length of Day
12h 09m
Full, 97% of the Moon is Illuminated
Sep 20
Full
Sep 26
Last Quarter
Oct 4
New
Oct 11
First Quarter
Oct 18
Full

Hourly Weather History & Observations

Time (HST) Temp. Dew Point Humidity Pressure Visibility Wind Dir Wind Speed Gust Speed Precip Events Conditions
12:56 AM 50.7 °F 46.8 °F 86% 30.34 in 12.0 mi ESE 9.2 mph - N/A   Clear
1:56 AM 51.3 °F 46.9 °F 85% 30.32 in 12.0 mi ESE 5.8 mph - N/A   Clear
2:56 AM 50.7 °F 48.2 °F 91% 30.31 in 12.0 mi ESE 6.9 mph - N/A   Clear
3:56 AM 49.6 °F 45.1 °F 84% 30.30 in 12.0 mi ESE 5.8 mph - N/A   Clear
4:56 AM 49.3 °F 45.3 °F 86% 30.31 in 12.0 mi ESE 4.6 mph - N/A   Clear
5:56 AM 49.1 °F 42.6 °F 78% 30.32 in 12.0 mi NNE 5.8 mph - N/A   Clear
6:56 AM 52.0 °F 47.8 °F 86% 30.32 in 11.0 mi ESE 6.9 mph - N/A   Clear
7:56 AM 56.3 °F 49.5 °F 78% 30.35 in 12.0 mi SE 10.4 mph 16.1 mph N/A   Clear
8:56 AM 63.1 °F 50.0 °F 62% 30.35 in 12.0 mi South 11.5 mph 16.1 mph N/A   Clear
9:56 AM 66.2 °F 51.3 °F 59% 30.36 in 12.0 mi SSE 15.0 mph 20.7 mph N/A   Clear
10:56 AM 67.3 °F 52.5 °F 59% 30.35 in 12.0 mi South 11.5 mph 19.6 mph N/A   Clear
11:56 AM 67.8 °F 51.4 °F 56% 30.34 in 12.0 mi SE 10.4 mph 18.4 mph N/A   Partly Cloudy
12:56 PM 68.2 °F 52.7 °F 58% 30.33 in 12.0 mi SSE 12.7 mph 18.4 mph N/A   Partly Cloudy
1:56 PM 70.0 °F 52.2 °F 53% 30.31 in 12.0 mi South 10.4 mph 13.8 mph N/A   Clear
2:56 PM 69.1 °F 51.1 °F 53% 30.30 in 12.0 mi SSW 8.1 mph - N/A   Scattered Clouds
3:56 PM 68.4 °F 51.4 °F 55% 30.29 in 12.0 mi South 4.6 mph 17.3 mph N/A   Partly Cloudy
4:56 PM 65.1 °F 52.0 °F 62% 30.30 in 12.0 mi SSE 8.1 mph - N/A   Clear
5:56 PM 57.4 °F 51.4 °F 81% 30.31 in 12.0 mi SSE 12.7 mph 19.6 mph N/A   Clear
6:21 PM 55.4 °F 51.8 °F 88% 30.31 in 12.0 mi SE 12.7 mph 18.4 mph N/A   Mostly Cloudy
6:26 PM 55.4 °F 51.8 °F 88% 30.31 in 12.0 mi SE 12.7 mph 18.4 mph N/A   Scattered Clouds
6:57 PM 53.8 °F 47.7 °F 80% 30.31 in 12.0 mi SE 12.7 mph 20.7 mph N/A   Clear
7:56 PM 52.7 °F 46.4 °F 79% 30.33 in 12.0 mi ESE 10.4 mph 21.9 mph N/A   Clear
8:56 PM 51.6 °F 46.8 °F 83% 30.35 in 12.0 mi SE 10.4 mph 18.4 mph N/A   Clear
9:56 PM 51.1 °F 45.9 °F 82% 30.36 in 12.0 mi SE 9.2 mph - N/A   Clear
10:56 PM 51.3 °F 45.9 °F 82% 30.35 in 12.0 mi ESE 9.2 mph - N/A   Clear
11:56 PM 49.5 °F 43.2 °F 79% 30.34 in 12.0 mi SSW 3.5 mph - N/A   Clear